[[{"header":{"parameterUnit":"m.s-1","parameterCategory":1,"la1":30.2991,"la2":30.254,"lo1":-89.0895,"lo2":-89.0444,"dy":0.0017,"dx":0.0017,"nx":28,"ny":28,"refTime":"2025-02-03T03:00:00:Z","depth":0,"parameterNumber":2,"parameterNumberName":"U-component_of_WINDS"},"data":[0,0,0,0,0,0,0,0,0,0,0,0,0,0,0,0,0,0,0,0,0,0,0,0,0,0,0,0,0,0,0,0,0,0,0,0,0,0,0,0,0,0,0,0,0,0,0,0,0,0,0,0,0,0,0,0,0,0,-0.2428,-0.2427,0,-0.2345,-0.2344,-0.2344,-0.2306,-0.2306,-0.2306,-0.2306,-0.222,-0.2218,-0.2216,0,0,0,0,0,0,0,0,0,0,0,0,0,-0.2555,-0.2553,-0.2428,-0.2427,-0.2426,-0.2346,-0.2344,-0.2343,-0.2306,-0.2306,-0.2306,-0.2306,-0.2221,-0.2218,-0.2215,0,0,0,0,0,0,0,0,0,0,0,0,0,-0.2489,-0.2552,-0.2429,-0.2398,-0.2394,-0.2346,-0.2344,-0.2343,-0.2306,-0.2306,-0.2306,-0.2306,-0.2222,-0.2218,-0.2215,-0.2191,0,0,-0.2204,-0.2203,0,0,0,0,0,0,0,0,-0.2493,-0.2484,-0.2403,-0.24,-0.2396,-0.2336,-0.2358,-0.2292,-0.2306,-0.2339,-0.2306,-0.2306,-0.2259,-0.2252,-0.2236,-0.2187,-0.2183,-0.2204,-0.2202,-0.22,-0.2199,0,0,0,0,0,0,0,-0.2497,-0.2488,-0.2395,-0.2402,-0.2398,-0.2389,-0.2379,-0.2345,-0.2299,-0.2336,-0.2333,-0.2324,-0.2256,-0.224,-0.2234,-0.2182,-0.2204,-0.2201,-0.2199,-0.2197,-0.2111,-0.2111,0,0,0,0,0,0,-0.2507,-0.2492,-0.2398,-0.2393,-0.2446,-0.2386,-0.2376,-0.2355,-0.2299,-0.2291,-0.2324,-0.2323,-0.2246,-0.2238,-0.2231,-0.22,-0.22,-0.2197,-0.2195,-0.2111,-0.2111,-0.2111,0,0,0,0,0,0,-0.251,-0.2499,-0.2401,-0.2442,-0.2428,-0.2384,-0.2361,-0.2353,-0.2336,-0.229,-0.2282,-0.2315,-0.2245,-0.2236,-0.2201,-0.2196,-0.2195,-0.2192,-0.2111,-0.2111,-0.2111,-0.2137,0,0,0,0,0,0,-0.2514,-0.25,-0.249,-0.2442,-0.2427,-0.2373,-0.236,-0.2352,-0.2331,-0.2328,-0.228,-0.2272,-0.2245,-0.2207,-0.2198,-0.2191,-0.2189,-0.2111,-0.2111,-0.2111,-0.2137,-0.2138,-0.2139,0,0,0,0,0,-0.2518,-0.25,-0.249,-0.2479,-0.2413,-0.2373,-0.2364,-0.2334,-0.233,-0.232,-0.2291,-0.2273,-0.2199,-0.2204,-0.2193,-0.2186,-0.2111,-0.2111,-0.2111,-0.2136,-0.2138,-0.2139,0,0,0,0,0,0,-0.2548,-0.2493,-0.2481,-0.2446,-0.2415,-0.2367,-0.2352,-0.2336,-0.2304,-0.2303,-0.2267,-0.2256,-0.2226,-0.2202,-0.2209,-0.2161,-0.2154,-0.2151,-0.2177,-0.2178,-0.2179,-0.2185,-0.2186,0,0,0,0,0,-0.2551,-0.2523,-0.2477,-0.2451,-0.2436,-0.2397,-0.2379,-0.2358,-0.2324,-0.231,-0.2278,-0.2245,-0.2215,-0.2195,-0.2164,-0.2134,-0.2124,-0.2124,-0.2125,-0.2126,-0.2124,-0.2108,-0.2108,-0.2109,-0.2109,-0.2109,0,0,-0.2555,-0.2522,-0.2507,-0.2456,-0.2429,-0.2402,-0.2386,-0.2357,-0.2336,-0.2305,-0.2271,-0.2247,-0.2209,-0.2177,-0.2161,-0.2156,-0.2122,-0.2126,-0.2127,-0.2124,-0.2108,-0.2108,-0.2108,-0.2109,-0.2109,-0.2109,0,0,-0.255,-0.2522,-0.2498,-0.2472,-0.2432,-0.2407,-0.2402,-0.2357,-0.234,-0.2306,-0.2283,-0.2258,-0.2205,-0.2179,-0.2159,-0.2148,-0.2131,-0.2139,-0.2145,-0.213,-0.213,-0.213,-0.2127,-0.2126,-0.2138,-0.2138,-0.2138,0,-0.2561,-0.2519,-0.2488,-0.2461,-0.244,-0.2412,-0.2389,-0.2365,-0.2317,-0.2303,-0.2299,-0.2234,-0.2206,-0.2169,-0.2167,-0.2151,-0.2144,-0.2144,-0.2133,-0.2132,-0.2132,-0.2128,-0.2127,-0.2139,-0.2139,-0.2139,-0.2139,0,-0.2535,-0.2506,-0.2492,-0.2447,-0.2425,-0.24,-0.2366,-0.2347,-0.233,-0.2306,-0.2272,-0.2238,-0.2201,-0.2191,-0.2172,-0.2151,-0.215,-0.214,-0.2132,-0.2133,-0.213,-0.2128,-0.2141,-0.214,-0.214,-0.214,0,0,-0.2544,-0.2485,-0.248,-0.246,-0.2416,-0.2393,-0.2368,-0.2332,-0.2317,-0.2286,-0.2264,-0.2222,-0.2213,-0.2191,-0.217,-0.2157,-0.2152,-0.2148,-0.2147,-0.2151,-0.2129,-0.2137,-0.2135,-0.2141,-0.2141,-0.2141,-0.2132,0,-0.2533,-0.2485,-0.2459,-0.2423,-0.2397,-0.2372,-0.235,-0.2321,-0.2298,-0.2274,-0.2249,-0.222,-0.221,-0.2197,-0.2183,-0.2156,-0.2147,-0.2156,-0.2121,-0.212,-0.2132,-0.2133,-0.2141,-0.2134,-0.213,-0.213,-0.213,0,-0.2512,-0.2483,-0.2445,-0.2406,-0.2394,-0.2375,-0.2341,-0.2318,-0.2285,-0.227,-0.2246,-0.2226,-0.22,-0.2195,-0.2159,-0.2165,-0.215,-0.2135,-0.2134,-0.2129,-0.2125,-0.2129,-0.2131,-0.213,-0.2127,-0.2127,-0.2128,0,-0.2524,-0.2474,-0.2446,-0.243,-0.2383,-0.237,-0.235,-0.2318,-0.2299,-0.227,-0.2258,-0.2226,-0.2209,-0.2185,-0.2158,-0.2157,-0.2125,-0.2117,-0.2112,-0.2113,-0.2105,-0.2106,-0.2106,-0.2096,-0.2096,-0.2096,-0.2096,0,-0.2514,-0.2492,-0.2451,-0.2433,-0.2408,-0.2379,-0.2355,-0.2333,-0.2305,-0.2283,-0.226,-0.224,-0.2205,-0.2182,-0.216,-0.2134,-0.2127,-0.2114,-0.2109,-0.2116,-0.2118,-0.2105,-0.2105,-0.2096,-0.2096,-0.2096,-0.2096,0,-0.2521,-0.2492,-0.246,-0.2419,-0.2409,-0.2393,-0.2358,-0.2341,-0.2318,-0.2292,-0.2284,-0.2249,-0.222,-0.2191,-0.2152,-0.2137,-0.2113,-0.2105,-0.2124,-0.212,-0.2117,-0.2118,-0.2108,-0.2106,-0.2098,-0.2098,-0.2098,0,-0.2516,-0.2499,-0.2457,-0.2442,-0.2423,-0.2397,-0.2378,-0.235,-0.2331,-0.2295,-0.2282,-0.2252,-0.2226,-0.2182,-0.2153,-0.2124,-0.2116,-0.2115,-0.2111,-0.212,-0.2116,-0.2118,-0.2117,-0.2115,-0.2116,-0.2116,-0.2116,0,-0.2511,-0.2499,-0.2473,-0.2443,-0.2422,-0.2396,-0.237,-0.2359,-0.2325,-0.2306,-0.2277,-0.2257,-0.2219,-0.219,-0.2158,-0.2138,-0.2122,-0.2118,-0.2115,-0.2122,-0.2134,-0.2128,-0.2127,-0.2118,-0.2117,-0.2117,-0.2117,-0.2117,-0.2512,-0.2497,-0.2466,-0.2438,-0.2416,-0.2393,-0.2376,-0.2352,-0.2328,-0.2294,-0.2279,-0.2251,-0.2221,-0.2176,-0.2157,-0.2135,-0.2131,-0.2126,-0.2125,-0.2125,-0.2127,-0.2138,-0.2129,-0.2129,-0.2129,-0.2129,-0.2129,0,-0.2507,-0.2486,-0.2462,-0.2427,-0.2406,-0.2394,-0.2365,-0.2349,-0.2324,-0.2298,-0.2274,-0.2242,-0.2214,-0.2185,-0.2156,-0.2144,-0.2136,-0.2138,-0.2138,-0.2134,-0.2132,-0.2138,-0.2145,-0.2145,-0.2145,-0.2145,-0.2145,-0.2145,-0.2501,-0.2475,-0.2459,-0.2422,-0.2402,-0.2374,-0.2359,-0.2339,-0.2318,-0.2283,-0.2261,-0.2242,-0.2215,-0.2185,-0.216,-0.2152,-0.2143,-0.2147,-0.2137,-0.2135,-0.2134,-0.2133,-0.2138,-0.2145,-0.2145,-0.214,-0.214,-0.214]},{"header":{"parameterUnit":"m.s-1","parameterCategory":1,"la1":30.2991,"la2":30.254,"lo1":-89.0895,"lo2":-89.0444,"dy":0.0017,"dx":0.0017,"nx":28,"ny":28,"refTime":"2025-02-03T03:00:00:Z","depth":0,"parameterNumber":3,"parameterNumberName":"V-component_of_WINDS"},"data":[0,0,0,0,0,0,0,0,0,0,0,0,0,0,0,0,0,0,0,0,0,0,0,0,0,0,0,0,0,0,0,0,0,0,0,0,0,0,0,0,0,0,0,0,0,0,0,0,0,0,0,0,0,0,0,0,0,0,1.9598,1.9597,0,1.9561,1.9561,1.956,1.9605,1.9606,1.9608,1.9609,1.9566,1.9563,1.9561,0,0,0,0,0,0,0,0,0,0,0,0,0,1.9702,1.9699,1.9598,1.9597,1.9597,1.9561,1.9561,1.956,1.9604,1.9606,1.9608,1.961,1.9567,1.9564,1.956,0,0,0,0,0,0,0,0,0,0,0,0,0,1.966,1.9699,1.9598,1.9615,1.9616,1.9561,1.9561,1.956,1.9604,1.9606,1.9609,1.9611,1.9568,1.9564,1.956,1.9485,0,0,1.9547,1.9546,0,0,0,0,0,0,0,0,1.9662,1.9656,1.9613,1.9614,1.9615,1.959,1.9581,1.9535,1.9603,1.9608,1.961,1.9612,1.9572,1.9567,1.9555,1.9483,1.9481,1.9547,1.9545,1.9543,1.9542,0,0,0,0,0,0,0,1.9665,1.9658,1.9583,1.9612,1.9613,1.9623,1.9619,1.9573,1.9576,1.9608,1.9611,1.9607,1.9572,1.9559,1.9554,1.948,1.9547,1.9544,1.9541,1.9539,1.9345,1.9342,0,0,0,0,0,0,1.9666,1.966,1.9584,1.9582,1.9645,1.9619,1.9615,1.9595,1.9577,1.9577,1.9604,1.9609,1.9564,1.9559,1.9553,1.9463,1.9543,1.9539,1.9537,1.9347,1.9344,1.9341,0,0,0,0,0,0,1.9669,1.9659,1.9586,1.9622,1.9613,1.9614,1.9592,1.9593,1.958,1.9574,1.9575,1.959,1.9566,1.9558,1.9502,1.9462,1.9537,1.9534,1.9351,1.9346,1.9343,1.9284,0,0,0,0,0,0,1.9671,1.966,1.9632,1.9621,1.9611,1.9537,1.9589,1.9591,1.9573,1.9578,1.9561,1.956,1.9567,1.9508,1.9498,1.9458,1.953,1.9354,1.9349,1.9344,1.9289,1.9278,1.9269,0,0,0,0,0,1.9675,1.9616,1.9631,1.9621,1.9577,1.9534,1.9529,1.954,1.957,1.9541,1.9538,1.9561,1.9469,1.9501,1.9491,1.9449,1.9357,1.935,1.9344,1.9294,1.9281,1.9269,0,0,0,0,0,0,1.9621,1.9615,1.9631,1.9567,1.9551,1.9542,1.9507,1.9525,1.9499,1.9505,1.9519,1.9514,1.9454,1.9446,1.9483,1.9376,1.9417,1.9409,1.9383,1.937,1.936,1.9362,1.9527,0,0,0,0,0,1.9602,1.957,1.9565,1.9509,1.9501,1.9505,1.9487,1.9497,1.948,1.9473,1.9466,1.9447,1.9414,1.9392,1.9361,1.9289,1.9285,1.9255,1.9245,1.9237,1.9229,1.9189,1.9176,1.9321,1.9321,1.9321,0,0,1.9561,1.9554,1.9533,1.9498,1.9487,1.9452,1.9499,1.9459,1.9433,1.9467,1.9413,1.9407,1.9387,1.9322,1.9293,1.9314,1.9188,1.9229,1.9222,1.9219,1.9182,1.9168,1.9156,1.9317,1.9317,1.9318,0,0,1.947,1.9462,1.9414,1.9403,1.9386,1.9389,1.9378,1.9366,1.9364,1.9311,1.9336,1.9303,1.9246,1.9231,1.9216,1.9119,1.9139,1.9109,1.9055,1.9017,1.9005,1.8995,1.896,1.8947,1.9101,1.9101,1.9101,0,1.9421,1.937,1.9387,1.9346,1.9329,1.9361,1.9312,1.9299,1.9272,1.926,1.9284,1.9213,1.9202,1.9134,1.9111,1.9098,1.9084,1.911,1.9006,1.8996,1.8987,1.8953,1.894,1.9097,1.9098,1.9098,1.9099,0,1.9311,1.9275,1.9239,1.9214,1.9194,1.9149,1.9157,1.9134,1.9147,1.9147,1.9092,1.908,1.9048,1.9033,1.9043,1.8966,1.8979,1.9004,1.9046,1.8969,1.8938,1.8925,1.9092,1.9094,1.9095,1.9096,0,0,1.9182,1.9169,1.9155,1.9145,1.9129,1.9101,1.9057,1.9027,1.9007,1.8988,1.895,1.8902,1.8926,1.8908,1.8918,1.8884,1.8808,1.8913,1.8913,1.8893,1.872,1.8701,1.8686,1.8821,1.8819,1.8817,1.8722,0,1.909,1.9016,1.903,1.8957,1.8924,1.8954,1.8916,1.8901,1.8901,1.8871,1.887,1.8835,1.8869,1.8859,1.8827,1.8824,1.8773,1.8831,1.8785,1.8783,1.8788,1.867,1.8649,1.8559,1.871,1.8708,1.8706,0,1.8972,1.8951,1.8875,1.8866,1.8852,1.8818,1.8791,1.8763,1.8747,1.8749,1.873,1.8746,1.8701,1.8745,1.8682,1.8721,1.8703,1.8698,1.8695,1.869,1.8739,1.866,1.8531,1.8517,1.8687,1.8689,1.869,0,1.8885,1.8837,1.8786,1.8776,1.8763,1.8738,1.8732,1.8718,1.8699,1.8676,1.8664,1.8635,1.8618,1.8595,1.8602,1.8633,1.8537,1.8582,1.8536,1.8535,1.8513,1.8514,1.8378,1.8503,1.8503,1.8504,1.8504,0,1.878,1.8732,1.8747,1.8715,1.8662,1.8678,1.8625,1.8621,1.8609,1.8576,1.86,1.8568,1.858,1.8548,1.8554,1.85,1.8493,1.8492,1.8493,1.8489,1.8489,1.8476,1.8482,1.85,1.8501,1.8502,1.8502,0,1.8673,1.8681,1.8627,1.862,1.8617,1.8579,1.8572,1.8541,1.8544,1.8501,1.8492,1.8495,1.8459,1.8464,1.8423,1.8427,1.836,1.837,1.8366,1.8368,1.8321,1.8325,1.8172,1.8152,1.8291,1.8289,1.8288,0,1.8604,1.8569,1.8559,1.854,1.8532,1.85,1.8481,1.8496,1.8475,1.8455,1.8426,1.8393,1.8367,1.8308,1.8305,1.8274,1.8282,1.8231,1.8277,1.8274,1.828,1.8282,1.8278,1.8221,1.8219,1.8218,1.8217,0,1.8482,1.8488,1.8462,1.8437,1.8415,1.8395,1.8378,1.836,1.8372,1.8348,1.8313,1.8293,1.8253,1.8219,1.819,1.8181,1.82,1.8202,1.819,1.8184,1.8183,1.8182,1.834,1.8205,1.8206,1.8207,1.8208,1.8208,1.8391,1.8361,1.835,1.8319,1.8308,1.8292,1.8263,1.8262,1.8234,1.8204,1.8213,1.8173,1.8157,1.8121,1.8109,1.8077,1.8096,1.8078,1.8073,1.8068,1.8062,1.819,1.8072,1.8072,1.8072,1.8073,1.8073,0,1.8269,1.8264,1.8236,1.8212,1.8188,1.8211,1.8193,1.8171,1.8136,1.8121,1.8095,1.8054,1.8022,1.8017,1.7986,1.7961,1.7968,1.7952,1.7953,1.795,1.8048,1.8061,1.7946,1.7946,1.7946,1.7946,1.7946,1.7946,1.8203,1.8153,1.8157,1.8102,1.8096,1.8059,1.8046,1.8031,1.8019,1.7973,1.7947,1.7945,1.7933,1.7902,1.7873,1.7872,1.7859,1.7838,1.7841,1.7931,1.7944,1.7956,1.7968,1.7836,1.7835,1.7746,1.7745,1.7745]}]]